Regional Weather Roundup
Issued by NWS

Home | Current Version | Previous Version | Graphics & Text | Print | Product List | Glossary On
Versions: 1 2 3 4 5 6 7 8 9 10 11 12 13 14 15 16 17 18 19 20 21 22 23 24 25 26 27 28 29 30 31 32 33 34 35 36 37 38 39 40 41 42 43 44 45 46 47 48 49 50
000
ASUS43 KDTX 160101
RWRMI
MICHIGAN HOURLY REGIONAL WEATHER ROUNDUP
NATIONAL WEATHER SERVICE DETROIT/PONTIAC MI
900 PM EDT TUE AUG 15 2017

NOTE: "FAIR" INDICATES FEW OR NO CLOUDS BELOW 12,000 FEET WITH NO
SIGNIFICANT WEATHER AND/OR OBSTRUCTION TO VISIBILITY.

MIZ047>049-052>055-059>063-066>070-074>076-081>083-160200-
SOUTHEAST LOWER MICHIGAN

CITY           SKY/WX    TMP DP  RH WIND       PRES   REMARKS
ADRIAN         CLEAR     72  61  68 NE5       29.95R
ALMA           CLOUDY    67  61  79 SW5       29.96S
ANN ARBOR      CLEAR     74  61  63 N5        29.95R
BAD AXE        CLEAR     65  57  76 CALM      29.98R
CARO           CLOUDY    63  59  87 CALM      29.96R
DETROIT CITY   PTCLDY    72  63  73 E7        29.95R
DETROIT        PTCLDY    76  64  66 E8        29.95R
FLINT          CLEAR     72  59  63 NE3       29.96R
GROSSE ILE     PTCLDY    74  65  75 E7        29.94R
HILLSDALE      PTCLDY    68  63  83 CALM      29.96R
HOWELL         CLEAR     72  60  66 CALM      29.96R

CITY           SKY/WX    TMP DP  RH WIND       PRES   REMARKS
JACKSON        CLEAR    N/A N/A N/A MISG      29.96R
LAMBERTVILLE   CLEAR     71  63  76 CALM      29.93R
LANSING        PTCLDY    71  60  68 NE3       29.96R
LAPEER         FAIR      67  62  82 N3        29.97R
MASON          CLEAR     72  64  78 CALM      29.96R
MONROE         CLEAR     72  64  75 NE3       29.93R
MT. CLEMENS    PTCLDY    69  61  77 NE7       29.95R
PONTIAC        PTCLDY    72  62  71 NE3       29.95R
PORT HOPE        N/A     65  60  84 CALM      29.96R
PORT HURON     CLEAR     64  59  82 CALM      29.97R
TRI CITIES     CLOUDY    72  63  73 NE5       29.96R
MIDLAND        FAIR      66  62  85 CALM      29.95R
TROY           PTCLDY    75  61  60 NE8       29.97R
SAGINAW HB     PTCLDY    68  61  77 NE5       29.96R
$$
MIZ043>046-050>051-056>058-064>065-071>073-077>080-160200-
SOUTHWEST LOWER MICHIGAN

CITY           SKY/WX    TMP DP  RH WIND       PRES   REMARKS
BATTLE CREEK   CLEAR     75  64  68 N5        29.95S
BENTON HARBOR  CLOUDY    70  63  78 N3        29.95R
BIG RAPIDS     PTCLDY    68  59  72 NW6       29.97S
COLDWATER      CLEAR     74  65  74 CALM      29.94S
FREMONT        FAIR      67  60  80 N5        29.96S
HOLLAND        CLOUDY    71  59  65 N5        29.95S
GRAND RAPIDS   CLOUDY    73  60  63 N6        29.94S
IONIA          MOCLDY    69  60  73 E3        29.95R
KALAMAZOO      CLEAR     74  62  66 NW7       29.95R
LUDINGTON      PTCLDY    63  58  84 N3        29.97S
MARSHALL       CLEAR     73  64  74 CALM      29.94S
MOUNT PLEASANT CLOUDY    70  62  76 CALM      29.96R
MUSKEGON       CLOUDY    72  58  61 N7        29.95S
SOUTH HAVEN    PTCLDY    70  62  78 CALM      29.95R
$$
MIZ016>042-160200-
NORTHERN LOWER MICHIGAN

CITY           SKY/WX    TMP DP  RH WIND       PRES   REMARKS
ALPENA         CLEAR     67  58  72 CALM      29.97S
BEAVER ISLAND  CLOUDY    66  60  79 N6        30.00R
BELLAIRE       CLEAR     64  56  73 CALM      30.00R
CADILLAC       CLOUDY    67  58  74 N3        29.99S
CHARLEVOIX     CLEAR     65  59  79 W6        30.02S
FRANKFORT      CLOUDY    64  60  85 CALM      30.00R
GAYLORD        CLEAR     65  55  70 CALM      30.01R
GRAYLING       CLOUDY    64  56  75 NW3       30.01R
HARBOR SPRINGS CLEAR     65  58  79 CALM      29.99R
HOUGHTON LAKE  CLOUDY    66  59  78 NW5       29.99R
OSCODA         PTCLDY    67  62  83 S5        29.97R
PELLSTON       CLEAR     64  58  80 CALM      29.99R
ROGERS CITY    CLEAR     67  61  81 NW5       29.99R
TRAVERSE CITY  CLOUDY    69  55  60 N6        29.98R
$$
MIZ007>008-015-160200-
EASTERN UPPER MICHIGAN

CITY           SKY/WX    TMP DP  RH WIND       PRES   REMARKS
KINROSS        CLEAR     62  58  86 N9        30.01R
MACKINAC ISLAN MOCLDY    66  61  84 NW5       29.99R
NEWBERRY       CLEAR     59  58  97 N5        30.01R
S. S. MARIE    CLEAR     63  58  83 VRB5      30.00R
MUNISING         N/A     61  59  93 NW5       30.02R
$$
MIZ004>006-011>014-085-160200-
CENTRAL UPPER MICHIGAN

CITY           SKY/WX    TMP DP  RH WIND       PRES   REMARKS
MANISTIQUE     CLEAR     60  54  81 N5        30.01R
ESCANABA       CLEAR     64  56  75 N3        30.01R
MENOMINEE      PTCLDY    65  60  84 CALM      30.00S
SAWYER-GWINN   CLEAR     55  54  94 NE6       30.04R
$$
MIZ001>003-009>011-084-160200-
WESTERN UPPER MICHIGAN

CITY           SKY/WX    TMP DP  RH WIND       PRES   REMARKS
IRON MOUNTAIN  PTCLDY    63  55  75 E3        30.00S
HOUGHTON       CLEAR     58  53  84 E5        30.03S
COPPER HARBOR    N/A     58  52  80 CALM      30.03S
IRONWOOD       CLOUDY    63  56  78 E5        30.03R
$$

ABBREVIATIONS USED IN REMARKS
   TC - TEMPERATURE IN CELSIUS
  WCI - WIND CHILL INDEX
   HX - HEAT INDEX
  VSB - VISIBILITY





USA.gov is the U.S. government's official web portal to all federal, state and local government web resources and services.